User: anonymous   Login
Location: Unspecified
(0.0000°N, 0.0000°E)
Time: 01:43:12
(UTC+00:00)
Language:

USA 82 - Orbit

View from above orbital plane
View from above orbital plane
View from above satellite
View from above satellite

Ground track
Ground track

The orbit data is extracted from the following two-line orbital elements,

1 22009U 92037A   17096.60708866 0.00000000  00000-0  00000-0 0    01
2 22009  11.7417  34.7872 0011058 271.7567  88.1287  0.98811727    04
Epoch (UTC): 06 April 2017 14:34:12
Eccentricity: 0.0011058
inclination: 11.7417°
perigee height: 36153 km
apogee height: 36247 km
right ascension of ascending node: 34.7872°
argument of perigee: 271.7567°
revolutions per day: 0.98811727
mean anomaly at epoch: 88.1287°
orbit number at epoch: 0

The dashed part of the orbit path shows where the satellite is in the earth's shadow,  

DLR